UTC,SampNum,MM/DD/YYYY,HH:MM:SS,VbatMain,VbiasPos,VbiasNeg,TC_cont,Humidity,Vrse,Vrse_std,Vk,Vk_std,Ik,Ib,Opt_PN,Opt_SN,Moxy,O2satper,TC_opt,Dphase,Bphase,Rphase,Bamp,Bpot,Ramp,Opt_rawtemp,TC_MCat,Cond,Pres,pSal,day_MC,month_MC,year_MC,time_MC,pH,CHa,NTU,flow,unix_time,TC_cont_flg,Moxy_flg,O2satper_flg,pSal_flg,pH_flg,CHa_flg,NTU_flg
2024-04-01 00:00:02+00:00,,,,,,,12.0487,,,,,,,,,,,,,,,,,,,,,4.05441,,35.4869,,,,,,,,0,1711929602,2,9,9,2,9,9,9
2024-04-01 00:20:02+00:00,,,,,,,12.086,,,,,,,,,,,,,,,,,,,,,4.05804,,35.4869,,,,,,,,0,1711930802,2,9,9,2,9,9,9
2024-04-01 00:40:02+00:00,,,,,,,12.1243,,,,,,,,,,,,,,,,,,,,,4.06181,,35.4873,,,,,,,,0,1711932002,2,9,9,2,9,9,9
2024-04-01 01:00:02+00:00,,,,,,,12.1382,,,,,,,,,,,,,,,,,,,,,4.06341,,35.4896,,,,,,,,0,1711933202,2,9,9,2,9,9,9
2024-04-01 01:20:02+00:00,,,,,,,12.1621,,,,,,,,,,,,,,,,,,,,,4.06561,,35.4884,,,,,,,,0,1711934402,2,9,9,2,9,9,9
2024-04-01 01:40:01+00:00,,,,,,,12.1769,,,,,,,,,,,,,,,,,,,,,4.06711,,35.4889,,,,,,,,0,1711935601,2,9,9,2,9,9,9
2024-04-01 02:00:02+00:00,,,,,,,12.1808,,,,,,,,,,,,,,,,,,,,,4.06783,,35.4923,,,,,,,,0,1711936802,2,9,9,2,9,9,9
2024-04-01 02:20:02+00:00,,,,,,,12.1747,,,,,,,,,,,,,,,,,,,,,4.06734,,35.4932,,,,,,,,0,1711938002,2,9,9,2,9,9,9
2024-04-01 02:40:01+00:00,,,,,,,12.1776,,,,,,,,,,,,,,,,,,,,,4.06807,,35.4976,,,,,,,,0,1711939201,2,9,9,2,9,9,9
2024-04-01 03:00:02+00:00,,,,,,,12.1734,,,,,,,,,,,,,,,,,,,,,4.06779,,35.499,,,,,,,,0,1711940402,2,9,9,2,9,9,9
2024-04-01 03:20:01+00:00,,,,,,,12.1563,,,,,,,,,,,,,,,,,,,,,4.06604,,35.4981,,,,,,,,0,1711941601,2,9,9,2,9,9,9
2024-04-01 03:40:02+00:00,,,,,,,12.1178,,,,,,,,,,,,,,,,,,,,,4.0623,,35.4982,,,,,,,,0,1711942802,2,9,9,2,9,9,9
2024-04-01 04:00:02+00:00,,,,,,,12.0808,,,,,,,,,,,,,,,,,,,,,4.05859,,35.4973,,,,,,,,0,1711944002,2,9,9,2,9,9,9
2024-04-01 04:20:02+00:00,,,,,,,12.0465,,,,,,,,,,,,,,,,,,,,,4.05541,,35.4988,,,,,,,,0,1711945202,2,9,9,2,9,9,9
2024-04-01 04:40:01+00:00,,,,,,,12.0122,,,,,,,,,,,,,,,,,,,,,4.05319,,35.5098,,,,,,,,0,1711946401,2,9,9,2,9,9,9
2024-04-01 05:00:02+00:00,,,,,,,11.9853,,,,,,,,,,,,,,,,,,,,,4.04986,,35.5028,,,,,,,,0,1711947602,2,9,9,2,9,9,9
2024-04-01 05:20:01+00:00,,,,,,,11.9572,,,,,,,,,,,,,,,,,,,,,4.04746,,35.5061,,,,,,,,0,1711948801,2,9,9,2,9,9,9
2024-04-01 05:40:02+00:00,,,,,,,11.9474,,,,,,,,,,,,,,,,,,,,,4.04767,,35.5175,,,,,,,,0,1711950002,2,9,9,2,9,9,9
2024-04-01 06:00:02+00:00,,,,,,,11.941,,,,,,,,,,,,,,,,,,,,,4.04732,,35.5202,,,,,,,,0,1711951202,2,9,9,2,9,9,9
2024-04-01 06:20:02+00:00,,,,,,,11.9388,,,,,,,,,,,,,,,,,,,,,4.04753,,35.5244,,,,,,,,0,1711952402,2,9,9,2,9,9,9
2024-04-01 06:40:02+00:00,,,,,,,11.9388,,,,,,,,,,,,,,,,,,,,,4.04748,,35.5239,,,,,,,,0,1711953602,2,9,9,2,9,9,9
2024-04-01 07:00:02+00:00,,,,,,,11.9438,,,,,,,,,,,,,,,,,,,,,4.04804,,35.5245,,,,,,,,0,1711954802,2,9,9,2,9,9,9
2024-04-01 07:20:02+00:00,,,,,,,11.941,,,,,,,,,,,,,,,,,,,,,4.048,,35.5269,,,,,,,,0,1711956002,2,9,9,2,9,9,9
2024-04-01 07:40:01+00:00,,,,,,,11.942,,,,,,,,,,,,,,,,,,,,,4.04783,,35.5243,,,,,,,,0,1711957201,2,9,9,2,9,9,9
2024-04-01 08:00:02+00:00,,,,,,,11.928,,,,,,,,,,,,,,,,,,,,,4.04713,,35.5308,,,,,,,,0,1711958402,2,9,9,2,9,9,9
2024-04-01 08:20:01+00:00,,,,,,,11.9232,,,,,,,,,,,,,,,,,,,,,4.04678,,35.532,,,,,,,,0,1711959601,2,9,9,2,9,9,9
2024-04-01 08:40:02+00:00,,,,,,,11.9283,,,,,,,,,,,,,,,,,,,,,4.04707,,35.53,,,,,,,,0,1711960802,2,9,9,2,9,9,9
2024-04-01 09:00:02+00:00,,,,,,,11.9143,,,,,,,,,,,,,,,,,,,,,4.04634,,35.5361,,,,,,,,0,1711962002,2,9,9,2,9,9,9
2024-04-01 09:20:02+00:00,,,,,,,11.9063,,,,,,,,,,,,,,,,,,,,,4.04438,,35.5246,,,,,,,,0,1711963202,2,9,9,2,9,9,9
2024-04-01 09:40:01+00:00,,,,,,,11.89,,,,,,,,,,,,,,,,,,,,,4.04344,,35.5308,,,,,,,,0,1711964401,2,9,9,2,9,9,9
2024-04-01 10:00:02+00:00,,,,,,,11.8719,,,,,,,,,,,,,,,,,,,,,4.04139,,35.528,,,,,,,,0,1711965602,2,9,9,2,9,9,9
2024-04-01 10:20:02+00:00,,,,,,,11.8304,,,,,,,,,,,,,,,,,,,,,4.03819,,35.5363,,,,,,,,0,1711966802,2,9,9,2,9,9,9
2024-04-01 10:40:02+00:00,,,,,,,11.7998,,,,,,,,,,,,,,,,,,,,,4.03683,,35.5522,,,,,,,,0,1711968002,2,9,9,2,9,9,9
2024-04-01 11:00:01+00:00,,,,,,,11.7604,,,,,,,,,,,,,,,,,,,,,4.03173,,35.5398,,,,,,,,0,1711969201,2,9,9,2,9,9,9
2024-04-01 11:20:02+00:00,,,,,,,11.7217,,,,,,,,,,,,,,,,,,,,,4.02927,,35.5527,,,,,,,,0,1711970402,2,9,9,2,9,9,9
2024-04-01 11:40:02+00:00,,,,,,,11.7032,,,,,,,,,,,,,,,,,,,,,4.02809,,35.5588,,,,,,,,0,1711971602,2,9,9,2,9,9,9
2024-04-01 12:00:02+00:00,,,,,,,11.6577,,,,,,,,,,,,,,,,,,,,,4.02253,,35.5477,,,,,,,,0,1711972802,2,9,9,2,9,9,9
2024-04-01 12:20:02+00:00,,,,,,,11.5865,,,,,,,,,,,,,,,,,,,,,4.01594,,35.5509,,,,,,,,0,1711974002,2,9,9,2,9,9,9
2024-04-01 12:40:02+00:00,,,,,,,11.5077,,,,,,,,,,,,,,,,,,,,,4.00972,,35.5652,,,,,,,,0,1711975202,2,9,9,2,9,9,9
2024-04-01 13:00:02+00:00,,,,,,,11.424,,,,,,,,,,,,,,,,,,,,,4.00335,,35.5826,,,,,,,,0,1711976402,2,9,9,2,9,9,9
2024-04-01 13:20:02+00:00,,,,,,,11.3264,,,,,,,,,,,,,,,,,,,,,3.99334,,35.5773,,,,,,,,0,1711977602,2,9,9,2,9,9,9
2024-04-01 13:40:02+00:00,,,,,,,11.2479,,,,,,,,,,,,,,,,,,,,,3.98486,,35.5687,,,,,,,,0,1711978802,2,9,9,2,9,9,9
2024-04-01 14:00:02+00:00,,,,,,,11.1828,,,,,,,,,,,,,,,,,,,,,3.97841,,35.5674,,,,,,,,0,1711980002,2,9,9,2,9,9,9
2024-04-01 14:20:02+00:00,,,,,,,11.1236,,,,,,,,,,,,,,,,,,,,,3.97353,,35.576,,,,,,,,0,1711981202,2,9,9,2,9,9,9
2024-04-01 14:40:02+00:00,,,,,,,11.0779,,,,,,,,,,,,,,,,,,,,,3.96937,,35.5786,,,,,,,,0,1711982402,2,9,9,2,9,9,9
2024-04-01 15:00:01+00:00,,,,,,,11.0233,,,,,,,,,,,,,,,,,,,,,3.96429,,35.5807,,,,,,,,0,1711983601,2,9,9,2,9,9,9
2024-04-01 15:20:02+00:00,,,,,,,10.9881,,,,,,,,,,,,,,,,,,,,,3.96113,,35.5832,,,,,,,,0,1711984802,2,9,9,2,9,9,9
2024-04-01 15:40:02+00:00,,,,,,,10.9831,,,,,,,,,,,,,,,,,,,,,3.96087,,35.5855,,,,,,,,0,1711986002,2,9,9,2,9,9,9
2024-04-01 16:00:02+00:00,,,,,,,10.986,,,,,,,,,,,,,,,,,,,,,3.9614,,35.588,,,,,,,,0,1711987202,2,9,9,2,9,9,9
2024-04-01 16:20:02+00:00,,,,,,,10.9998,,,,,,,,,,,,,,,,,,,,,3.96293,,35.5898,,,,,,,,0,1711988402,2,9,9,2,9,9,9
2024-04-01 16:40:02+00:00,,,,,,,11.0313,,,,,,,,,,,,,,,,,,,,,3.96633,,35.5934,,,,,,,,0,1711989602,2,9,9,2,9,9,9
2024-04-01 17:00:02+00:00,,,,,,,11.0748,,,,,,,,,,,,,,,,,,,,,3.97096,,35.5976,,,,,,,,0,1711990802,2,9,9,2,9,9,9
2024-04-01 17:20:02+00:00,,,,,,,11.1194,,,,,,,,,,,,,,,,,,,,,3.9761,,35.6057,,,,,,,,0,1711992002,2,9,9,2,9,9,9
2024-04-01 17:40:02+00:00,,,,,,,11.1685,,,,,,,,,,,,,,,,,,,,,3.98106,,35.6077,,,,,,,,0,1711993202,2,9,9,2,9,9,9
2024-04-01 18:00:02+00:00,,,,,,,11.2216,,,,,,,,,,,,,,,,,,,,,3.98693,,35.6148,,,,,,,,0,1711994402,2,9,9,2,9,9,9
2024-04-01 18:20:02+00:00,,,,,,,11.2715,,,,,,,,,,,,,,,,,,,,,3.99207,,35.6177,,,,,,,,0,1711995602,2,9,9,2,9,9,9
2024-04-01 18:40:02+00:00,,,,,,,11.3248,,,,,,,,,,,,,,,,,,,,,3.99734,,35.6187,,,,,,,,0,1711996802,2,9,9,2,9,9,9
2024-04-01 19:00:01+00:00,,,,,,,11.3821,,,,,,,,,,,,,,,,,,,,,4.00324,,35.622,,,,,,,,0,1711998001,2,9,9,2,9,9,9
2024-04-01 19:20:01+00:00,,,,,,,11.4397,,,,,,,,,,,,,,,,,,,,,4.00937,,35.6272,,,,,,,,0,1711999201,2,9,9,2,9,9,9
2024-04-01 19:40:01+00:00,,,,,,,11.5002,,,,,,,,,,,,,,,,,,,,,4.01578,,35.6324,,,,,,,,0,1712000401,2,9,9,2,9,9,9
2024-04-01 20:00:02+00:00,,,,,,,11.5652,,,,,,,,,,,,,,,,,,,,,4.02261,,35.6374,,,,,,,,0,1712001602,2,9,9,2,9,9,9
2024-04-01 20:20:02+00:00,,,,,,,11.629,,,,,,,,,,,,,,,,,,,,,4.02922,,35.6412,,,,,,,,0,1712002802,2,9,9,2,9,9,9
2024-04-01 20:40:02+00:00,,,,,,,11.6976,,,,,,,,,,,,,,,,,,,,,4.03589,,35.6411,,,,,,,,0,1712004002,2,9,9,2,9,9,9
2024-04-01 21:00:02+00:00,,,,,,,11.7782,,,,,,,,,,,,,,,,,,,,,4.04407,,35.6443,,,,,,,,0,1712005202,2,9,9,2,9,9,9
2024-04-01 21:20:02+00:00,,,,,,,11.9179,,,,,,,,,,,,,,,,,,,,,4.05566,,35.6242,,,,,,,,0,1712006402,2,9,9,2,9,9,9
2024-04-01 21:40:02+00:00,,,,,,,12.0702,,,,,,,,,,,,,,,,,,,,,4.07019,,35.6208,,,,,,,,0,1712007602,2,9,9,2,9,9,9
2024-04-01 22:00:02+00:00,,,,,,,12.2631,,,,,,,,,,,,,,,,,,,,,4.08953,,35.6253,,,,,,,,0,1712008802,2,9,9,2,9,9,9
2024-04-01 22:20:02+00:00,,,,,,,12.4715,,,,,,,,,,,,,,,,,,,,,4.11024,,35.6282,,,,,,,,0,1712010002,2,9,9,2,9,9,9
2024-04-01 22:40:02+00:00,,,,,,,12.6601,,,,,,,,,,,,,,,,,,,,,4.12699,,35.6112,,,,,,,,0,1712011202,2,9,9,2,9,9,9
2024-04-01 23:00:02+00:00,,,,,,,12.8492,,,,,,,,,,,,,,,,,,,,,4.14299,,35.5865,,,,,,,,0,1712012402,2,9,9,2,9,9,9
2024-04-01 23:20:01+00:00,,,,,,,12.9657,,,,,,,,,,,,,,,,,,,,,4.15485,,35.5904,,,,,,,,0,1712013601,2,9,9,2,9,9,9
2024-04-01 23:40:02+00:00,,,,,,,13.1099,,,,,,,,,,,,,,,,,,,,,4.16963,,35.5961,,,,,,,,0,1712014802,2,9,9,2,9,9,9
2024-04-02 00:00:02+00:00,,,,,,,13.2119,,,,,,,,,,,,,,,,,,,,,4.17897,,35.5894,,,,,,,,0,1712016002,2,9,9,2,9,9,9
2024-04-02 00:20:02+00:00,,,,,,,13.3013,,,,,,,,,,,,,,,,,,,,,4.18872,,35.5983,,,,,,,,0,1712017202,2,9,9,2,9,9,9
2024-04-02 00:40:02+00:00,,,,,,,13.3657,,,,,,,,,,,,,,,,,,,,,4.19585,,35.6058,,,,,,,,0,1712018402,2,9,9,2,9,9,9
2024-04-02 01:00:02+00:00,,,,,,,13.4254,,,,,,,,,,,,,,,,,,,,,4.2018,,35.6063,,,,,,,,0,1712019602,2,9,9,2,9,9,9
2024-04-02 01:20:02+00:00,,,,,,,13.4749,,,,,,,,,,,,,,,,,,,,,4.20718,,35.6109,,,,,,,,0,1712020802,2,9,9,2,9,9,9
2024-04-02 01:40:02+00:00,,,,,,,13.5214,,,,,,,,,,,,,,,,,,,,,4.21198,,35.6129,,,,,,,,0,1712022002,2,9,9,2,9,9,9
2024-04-02 02:00:02+00:00,,,,,,,13.5692,,,,,,,,,,,,,,,,,,,,,4.21713,,35.617,,,,,,,,0,1712023202,2,9,9,2,9,9,9
2024-04-02 02:20:02+00:00,,,,,,,13.6003,,,,,,,,,,,,,,,,,,,,,4.22011,,35.616,,,,,,,,0,1712024402,2,9,9,2,9,9,9
2024-04-02 02:40:02+00:00,,,,,,,13.6143,,,,,,,,,,,,,,,,,,,,,4.22171,,35.6181,,,,,,,,0,1712025602,2,9,9,2,9,9,9
2024-04-02 03:00:02+00:00,,,,,,,13.6307,,,,,,,,,,,,,,,,,,,,,4.2233,,35.6178,,,,,,,,0,1712026802,2,9,9,2,9,9,9
2024-04-02 03:20:01+00:00,,,,,,,13.6248,,,,,,,,,,,,,,,,,,,,,4.22384,,35.6284,,,,,,,,0,1712028001,2,9,9,2,9,9,9
2024-04-02 03:40:02+00:00,,,,,,,13.6262,,,,,,,,,,,,,,,,,,,,,4.22386,,35.6273,,,,,,,,0,1712029202,2,9,9,2,9,9,9
2024-04-02 04:00:02+00:00,,,,,,,13.6151,,,,,,,,,,,,,,,,,,,,,4.22258,,35.6255,,,,,,,,0,1712030402,2,9,9,2,9,9,9
2024-04-02 04:20:01+00:00,,,,,,,13.5837,,,,,,,,,,,,,,,,,,,,,4.21906,,35.6216,,,,,,,,0,1712031601,2,9,9,2,9,9,9
2024-04-02 04:40:02+00:00,,,,,,,13.5251,,,,,,,,,,,,,,,,,,,,,4.21397,,35.6283,,,,,,,,0,1712032802,2,9,9,2,9,9,9
2024-04-02 05:00:02+00:00,,,,,,,13.4604,,,,,,,,,,,,,,,,,,,,,4.20862,,35.6382,,,,,,,,0,1712034002,2,9,9,2,9,9,9
2024-04-02 05:20:02+00:00,,,,,,,13.3986,,,,,,,,,,,,,,,,,,,,,4.20112,,35.6249,,,,,,,,0,1712035202,2,9,9,2,9,9,9
2024-04-02 05:40:02+00:00,,,,,,,13.3336,,,,,,,,,,,,,,,,,,,,,4.19544,,35.6318,,,,,,,,0,1712036402,2,9,9,2,9,9,9
2024-04-02 06:00:02+00:00,,,,,,,13.2874,,,,,,,,,,,,,,,,,,,,,4.19133,,35.6362,,,,,,,,0,1712037602,2,9,9,2,9,9,9
2024-04-02 06:20:02+00:00,,,,,,,13.2535,,,,,,,,,,,,,,,,,,,,,4.18903,,35.6461,,,,,,,,0,1712038802,2,9,9,2,9,9,9
2024-04-02 06:40:01+00:00,,,,,,,13.2236,,,,,,,,,,,,,,,,,,,,,4.18523,,35.638,,,,,,,,0,1712040001,2,9,9,2,9,9,9
2024-04-02 07:00:02+00:00,,,,,,,13.1832,,,,,,,,,,,,,,,,,,,,,4.18141,,35.6396,,,,,,,,0,1712041202,2,9,9,2,9,9,9
2024-04-02 07:20:02+00:00,,,,,,,13.1463,,,,,,,,,,,,,,,,,,,,,4.17822,,35.6439,,,,,,,,0,1712042402,2,9,9,2,9,9,9
2024-04-02 07:40:02+00:00,,,,,,,13.0923,,,,,,,,,,,,,,,,,,,,,4.17367,,35.6512,,,,,,,,0,1712043602,2,9,9,2,9,9,9
2024-04-02 08:00:02+00:00,,,,,,,13.0639,,,,,,,,,,,,,,,,,,,,,4.17077,,35.6503,,,,,,,,0,1712044802,2,9,9,2,9,9,9
2024-04-02 08:20:02+00:00,,,,,,,13.0018,,,,,,,,,,,,,,,,,,,,,4.16545,,35.658,,,,,,,,0,1712046002,2,9,9,2,9,9,9
2024-04-02 08:40:02+00:00,,,,,,,12.9452,,,,,,,,,,,,,,,,,,,,,4.16157,,35.6741,,,,,,,,0,1712047202,2,9,9,2,9,9,9
2024-04-02 09:00:02+00:00,,,,,,,12.8966,,,,,,,,,,,,,,,,,,,,,4.15572,,35.664,,,,,,,,0,1712048402,2,9,9,2,9,9,9
2024-04-02 09:20:02+00:00,,,,,,,12.8209,,,,,,,,,,,,,,,,,,,,,4.14781,,35.6596,,,,,,,,0,1712049602,2,9,9,2,9,9,9
2024-04-02 09:40:02+00:00,,,,,,,12.7553,,,,,,,,,,,,,,,,,,,,,4.1417,,35.6629,,,,,,,,0,1712050802,2,9,9,2,9,9,9
2024-04-02 10:00:02+00:00,,,,,,,12.6906,,,,,,,,,,,,,,,,,,,,,4.13589,,35.6682,,,,,,,,0,1712052002,2,9,9,2,9,9,9
2024-04-02 10:20:01+00:00,,,,,,,12.6373,,,,,,,,,,,,,,,,,,,,,4.13072,,35.6688,,,,,,,,0,1712053201,2,9,9,2,9,9,9
2024-04-02 10:40:02+00:00,,,,,,,12.5722,,,,,,,,,,,,,,,,,,,,,4.1252,,35.6773,,,,,,,,0,1712054402,2,9,9,2,9,9,9
2024-04-02 11:00:01+00:00,,,,,,,12.5168,,,,,,,,,,,,,,,,,,,,,4.11946,,35.6744,,,,,,,,0,1712055601,2,9,9,2,9,9,9
2024-04-02 11:20:02+00:00,,,,,,,12.4574,,,,,,,,,,,,,,,,,,,,,4.11458,,35.6836,,,,,,,,0,1712056802,2,9,9,2,9,9,9
2024-04-02 11:40:02+00:00,,,,,,,12.4143,,,,,,,,,,,,,,,,,,,,,4.11047,,35.6849,,,,,,,,0,1712058002,2,9,9,2,9,9,9
2024-04-02 12:00:01+00:00,,,,,,,12.3748,,,,,,,,,,,,,,,,,,,,,4.1061,,35.68,,,,,,,,0,1712059201,2,9,9,2,9,9,9
2024-04-02 12:20:02+00:00,,,,,,,12.3141,,,,,,,,,,,,,,,,,,,,,4.10243,,35.7022,,,,,,,,0,1712060402,2,9,9,2,9,9,9
2024-04-02 12:40:02+00:00,,,,,,,12.2773,,,,,,,,,,,,,,,,,,,,,4.09742,,35.6886,,,,,,,,0,1712061602,2,9,9,2,9,9,9
2024-04-02 13:00:02+00:00,,,,,,,12.2223,,,,,,,,,,,,,,,,,,,,,4.09249,,35.6931,,,,,,,,0,1712062802,2,9,9,2,9,9,9
2024-04-02 13:20:02+00:00,,,,,,,12.1768,,,,,,,,,,,,,,,,,,,,,4.08875,,35.7001,,,,,,,,0,1712064002,2,9,9,2,9,9,9
2024-04-02 13:40:02+00:00,,,,,,,12.1302,,,,,,,,,,,,,,,,,,,,,4.0839,,35.6974,,,,,,,,0,1712065202,2,9,9,2,9,9,9
2024-04-02 14:00:02+00:00,,,,,,,12.072,,,,,,,,,,,,,,,,,,,,,4.07881,,35.7033,,,,,,,,0,1712066402,2,9,9,2,9,9,9
2024-04-02 14:20:02+00:00,,,,,,,12.0372,,,,,,,,,,,,,,,,,,,,,4.07516,,35.7009,,,,,,,,0,1712067602,2,9,9,2,9,9,9
2024-04-02 14:40:02+00:00,,,,,,,12.0078,,,,,,,,,,,,,,,,,,,,,4.07236,,35.7018,,,,,,,,0,1712068802,2,9,9,2,9,9,9
2024-04-02 15:00:02+00:00,,,,,,,12.0017,,,,,,,,,,,,,,,,,,,,,4.07228,,35.7068,,,,,,,,0,1712070002,2,9,9,2,9,9,9
2024-04-02 15:20:02+00:00,,,,,,,11.9936,,,,,,,,,,,,,,,,,,,,,4.07243,,35.7161,,,,,,,,0,1712071202,2,9,9,2,9,9,9
2024-04-02 15:40:02+00:00,,,,,,,12.0032,,,,,,,,,,,,,,,,,,,,,4.07378,,35.72,,,,,,,,0,1712072402,2,9,9,2,9,9,9
2024-04-02 16:00:01+00:00,,,,,,,12.0165,,,,,,,,,,,,,,,,,,,,,4.07522,,35.7214,,,,,,,,0,1712073601,2,9,9,2,9,9,9
2024-04-02 16:20:02+00:00,,,,,,,12.0491,,,,,,,,,,,,,,,,,,,,,4.07816,,35.7189,,,,,,,,0,1712074802,2,9,9,2,9,9,9
2024-04-02 16:40:02+00:00,,,,,,,12.0727,,,,,,,,,,,,,,,,,,,,,4.08281,,35.7419,,,,,,,,0,1712076002,2,9,9,2,9,9,9
2024-04-02 17:00:02+00:00,,,,,,,12.1161,,,,,,,,,,,,,,,,,,,,,4.08765,,35.7476,,,,,,,,0,1712077202,2,9,9,2,9,9,9
2024-04-02 17:20:01+00:00,,,,,,,12.1562,,,,,,,,,,,,,,,,,,,,,4.09109,,35.7427,,,,,,,,0,1712078401,2,9,9,2,9,9,9
2024-04-02 17:40:02+00:00,,,,,,,12.1849,,,,,,,,,,,,,,,,,,,,,4.09337,,35.7375,,,,,,,,0,1712079602,2,9,9,2,9,9,9
2024-04-02 18:00:02+00:00,,,,,,,12.2202,,,,,,,,,,,,,,,,,,,,,4.09706,,35.7396,,,,,,,,0,1712080802,2,9,9,2,9,9,9
2024-04-02 18:20:01+00:00,,,,,,,12.271,,,,,,,,,,,,,,,,,,,,,4.10232,,35.7423,,,,,,,,0,1712082001,2,9,9,2,9,9,9
2024-04-02 18:40:01+00:00,,,,,,,12.3479,,,,,,,,,,,,,,,,,,,,,4.11007,,35.7443,,,,,,,,0,1712083201,2,9,9,2,9,9,9
2024-04-02 19:00:01+00:00,,,,,,,12.4331,,,,,,,,,,,,,,,,,,,,,4.11952,,35.7548,,,,,,,,0,1712084401,2,9,9,2,9,9,9
2024-04-02 19:20:01+00:00,,,,,,,12.5245,,,,,,,,,,,,,,,,,,,,,4.12941,,35.7634,,,,,,,,0,1712085601,2,9,9,2,9,9,9
2024-04-02 19:40:02+00:00,,,,,,,12.6264,,,,,,,,,,,,,,,,,,,,,4.13979,,35.7668,,,,,,,,0,1712086802,2,9,9,2,9,9,9
2024-04-02 20:00:02+00:00,,,,,,,12.7266,,,,,,,,,,,,,,,,,,,,,4.15005,,35.7706,,,,,,,,0,1712088002,2,9,9,2,9,9,9
2024-04-02 20:20:02+00:00,,,,,,,12.8396,,,,,,,,,,,,,,,,,,,,,4.16224,,35.7806,,,,,,,,0,1712089202,2,9,9,2,9,9,9
2024-04-02 20:40:01+00:00,,,,,,,12.9709,,,,,,,,,,,,,,,,,,,,,4.17635,,35.7916,,,,,,,,0,1712090401,2,9,9,2,9,9,9
2024-04-02 21:00:02+00:00,,,,,,,13.0965,,,,,,,,,,,,,,,,,,,,,4.18958,,35.7993,,,,,,,,0,1712091602,2,9,9,2,9,9,9
2024-04-02 21:20:02+00:00,,,,,,,13.24,,,,,,,,,,,,,,,,,,,,,4.2029,,35.7909,,,,,,,,0,1712092802,2,9,9,2,9,9,9
2024-04-02 21:40:02+00:00,,,,,,,13.3889,,,,,,,,,,,,,,,,,,,,,4.21729,,35.7874,,,,,,,,0,1712094002,2,9,9,2,9,9,9
2024-04-02 22:00:02+00:00,,,,,,,13.5205,,,,,,,,,,,,,,,,,,,,,4.23091,,35.7928,,,,,,,,0,1712095202,2,9,9,2,9,9,9
2024-04-02 22:20:02+00:00,,,,,,,13.6611,,,,,,,,,,,,,,,,,,,,,4.24573,,35.8009,,,,,,,,0,1712096402,2,9,9,2,9,9,9
2024-04-02 22:40:02+00:00,,,,,,,13.7963,,,,,,,,,,,,,,,,,,,,,4.25931,,35.8023,,,,,,,,0,1712097602,2,9,9,2,9,9,9
2024-04-02 23:00:02+00:00,,,,,,,13.9417,,,,,,,,,,,,,,,,,,,,,4.27261,,35.7915,,,,,,,,0,1712098802,2,9,9,2,9,9,9
2024-04-02 23:20:02+00:00,,,,,,,14.0628,,,,,,,,,,,,,,,,,,,,,4.28393,,35.7845,,,,,,,,0,1712100002,2,9,9,2,9,9,9
2024-04-02 23:40:02+00:00,,,,,,,14.18,,,,,,,,,,,,,,,,,,,,,4.29432,,35.7725,,,,,,,,0,1712101202,2,9,9,2,9,9,9
2024-04-03 00:00:03+00:00,,,,,,,14.3219,,,,,,,,,,,,,,,,,,,,,4.30841,,35.772,,,,,,,,0,1712102403,2,9,9,2,9,9,9
2024-04-03 00:20:02+00:00,,,,,,,14.4249,,,,,,,,,,,,,,,,,,,,,4.31939,,35.7785,,,,,,,,0,1712103602,2,9,9,2,9,9,9
2024-04-03 00:40:02+00:00,,,,,,,14.4918,,,,,,,,,,,,,,,,,,,,,4.32531,,35.7715,,,,,,,,0,1712104802,2,9,9,2,9,9,9
2024-04-03 01:00:02+00:00,,,,,,,14.528,,,,,,,,,,,,,,,,,,,,,4.32784,,35.7613,,,,,,,,0,1712106002,2,9,9,2,9,9,9
2024-04-03 01:20:02+00:00,,,,,,,14.526,,,,,,,,,,,,,,,,,,,,,4.32621,,35.7481,,,,,,,,0,1712107202,2,9,9,2,9,9,9
2024-04-03 01:40:02+00:00,,,,,,,14.4916,,,,,,,,,,,,,,,,,,,,,4.32399,,35.7593,,,,,,,,0,1712108402,2,9,9,2,9,9,9
2024-04-03 02:00:02+00:00,,,,,,,14.4176,,,,,,,,,,,,,,,,,,,,,4.31767,,35.7693,,,,,,,,0,1712109602,2,9,9,2,9,9,9
2024-04-03 02:20:02+00:00,,,,,,,14.3584,,,,,,,,,,,,,,,,,,,,,4.31209,,35.7723,,,,,,,,0,1712110802,2,9,9,2,9,9,9
2024-04-03 02:40:02+00:00,,,,,,,14.2889,,,,,,,,,,,,,,,,,,,,,4.30508,,35.7715,,,,,,,,0,1712112002,2,9,9,2,9,9,9
2024-04-03 03:00:02+00:00,,,,,,,14.2149,,,,,,,,,,,,,,,,,,,,,4.29835,,35.7777,,,,,,,,0,1712113202,2,9,9,2,9,9,9
2024-04-03 03:20:02+00:00,,,,,,,14.144,,,,,,,,,,,,,,,,,,,,,4.29143,,35.779,,,,,,,,0,1712114402,2,9,9,2,9,9,9
2024-04-03 03:40:02+00:00,,,,,,,14.0837,,,,,,,,,,,,,,,,,,,,,4.28591,,35.7836,,,,,,,,0,1712115602,2,9,9,2,9,9,9
2024-04-03 04:00:02+00:00,,,,,,,14.0251,,,,,,,,,,,,,,,,,,,,,4.27948,,35.7779,,,,,,,,0,1712116802,2,9,9,2,9,9,9
2024-04-03 04:20:02+00:00,,,,,,,13.9682,,,,,,,,,,,,,,,,,,,,,4.27404,,35.7801,,,,,,,,0,1712118002,2,9,9,2,9,9,9
2024-04-03 04:40:02+00:00,,,,,,,13.9127,,,,,,,,,,,,,,,,,,,,,4.26938,,35.7882,,,,,,,,0,1712119202,2,9,9,2,9,9,9
2024-04-03 05:00:02+00:00,,,,,,,13.8745,,,,,,,,,,,,,,,,,,,,,4.2655,,35.7874,,,,,,,,0,1712120402,2,9,9,2,9,9,9
2024-04-03 05:20:02+00:00,,,,,,,13.8345,,,,,,,,,,,,,,,,,,,,,4.26177,,35.7897,,,,,,,,0,1712121602,2,9,9,2,9,9,9
2024-04-03 05:40:02+00:00,,,,,,,13.8062,,,,,,,,,,,,,,,,,,,,,4.25873,,35.7876,,,,,,,,0,1712122802,2,9,9,2,9,9,9
2024-04-03 06:00:02+00:00,,,,,,,13.7768,,,,,,,,,,,,,,,,,,,,,4.25604,,35.7898,,,,,,,,0,1712124002,2,9,9,2,9,9,9
2024-04-03 06:20:01+00:00,,,,,,,13.756,,,,,,,,,,,,,,,,,,,,,4.25359,,35.7862,,,,,,,,0,1712125201,2,9,9,2,9,9,9
2024-04-03 06:40:02+00:00,,,,,,,13.7201,,,,,,,,,,,,,,,,,,,,,4.25045,,35.7903,,,,,,,,0,1712126402,2,9,9,2,9,9,9
2024-04-03 07:00:02+00:00,,,,,,,13.6895,,,,,,,,,,,,,,,,,,,,,4.24797,,35.7955,,,,,,,,0,1712127602,2,9,9,2,9,9,9
2024-04-03 07:20:02+00:00,,,,,,,13.6606,,,,,,,,,,,,,,,,,,,,,4.24457,,35.7904,,,,,,,,0,1712128802,2,9,9,2,9,9,9
2024-04-03 07:40:02+00:00,,,,,,,13.6294,,,,,,,,,,,,,,,,,,,,,4.24177,,35.7933,,,,,,,,0,1712130002,2,9,9,2,9,9,9
2024-04-03 08:00:02+00:00,,,,,,,13.5837,,,,,,,,,,,,,,,,,,,,,4.23835,,35.8039,,,,,,,,0,1712131202,2,9,9,2,9,9,9
2024-04-03 08:20:02+00:00,,,,,,,13.5399,,,,,,,,,,,,,,,,,,,,,4.23311,,35.7955,,,,,,,,0,1712132402,2,9,9,2,9,9,9
2024-04-03 08:40:02+00:00,,,,,,,13.4971,,,,,,,,,,,,,,,,,,,,,4.2293,,35.7995,,,,,,,,0,1712133602,2,9,9,2,9,9,9
2024-04-03 09:00:02+00:00,,,,,,,13.4622,,,,,,,,,,,,,,,,,,,,,4.22576,,35.7989,,,,,,,,0,1712134802,2,9,9,2,9,9,9
2024-04-03 09:20:02+00:00,,,,,,,13.4104,,,,,,,,,,,,,,,,,,,,,4.22149,,35.8071,,,,,,,,0,1712136002,2,9,9,2,9,9,9
2024-04-03 09:40:02+00:00,,,,,,,13.3684,,,,,,,,,,,,,,,,,,,,,4.21684,,35.8025,,,,,,,,0,1712137202,2,9,9,2,9,9,9
2024-04-03 10:00:02+00:00,,,,,,,13.3177,,,,,,,,,,,,,,,,,,,,,4.21243,,35.8083,,,,,,,,0,1712138402,2,9,9,2,9,9,9
2024-04-03 10:20:02+00:00,,,,,,,13.2119,,,,,,,,,,,,,,,,,,,,,4.20399,,35.8278,,,,,,,,0,1712139602,2,9,9,2,9,9,9
2024-04-03 10:40:02+00:00,,,,,,,13.0917,,,,,,,,,,,,,,,,,,,,,4.19365,,35.8428,,,,,,,,0,1712140802,2,9,9,2,9,9,9
2024-04-03 11:00:02+00:00,,,,,,,12.9923,,,,,,,,,,,,,,,,,,,,,4.18465,,35.8508,,,,,,,,0,1712142002,2,9,9,2,9,9,9
2024-04-03 11:20:02+00:00,,,,,,,12.9128,,,,,,,,,,,,,,,,,,,,,4.17657,,35.8488,,,,,,,,0,1712143202,2,9,9,2,9,9,9
2024-04-03 11:40:02+00:00,,,,,,,12.8727,,,,,,,,,,,,,,,,,,,,,4.17153,,35.8385,,,,,,,,0,1712144402,2,9,9,2,9,9,9
2024-04-03 12:00:02+00:00,,,,,,,12.8436,,,,,,,,,,,,,,,,,,,,,4.16848,,35.8367,,,,,,,,0,1712145602,2,9,9,2,9,9,9
2024-04-03 12:20:02+00:00,,,,,,,12.7512,,,,,,,,,,,,,,,,,,,,,4.16099,,35.8526,,,,,,,,0,1712146802,2,9,9,2,9,9,9
2024-04-03 12:40:02+00:00,,,,,,,12.6888,,,,,,,,,,,,,,,,,,,,,4.15341,,35.8389,,,,,,,,0,1712148002,2,9,9,2,9,9,9
2024-04-03 13:00:02+00:00,,,,,,,12.6331,,,,,,,,,,,,,,,,,,,,,4.14794,,35.8392,,,,,,,,0,1712149202,2,9,9,2,9,9,9
2024-04-03 13:20:02+00:00,,,,,,,12.5621,,,,,,,,,,,,,,,,,,,,,4.14051,,35.8351,,,,,,,,0,1712150402,2,9,9,2,9,9,9
2024-04-03 13:40:02+00:00,,,,,,,12.4856,,,,,,,,,,,,,,,,,,,,,4.13388,,35.8439,,,,,,,,0,1712151602,2,9,9,2,9,9,9
2024-04-03 14:00:02+00:00,,,,,,,12.395,,,,,,,,,,,,,,,,,,,,,4.12549,,35.8491,,,,,,,,0,1712152802,2,9,9,2,9,9,9
2024-04-03 14:20:02+00:00,,,,,,,12.3303,,,,,,,,,,,,,,,,,,,,,4.11966,,35.8543,,,,,,,,0,1712154002,2,9,9,2,9,9,9
2024-04-03 14:40:02+00:00,,,,,,,12.2583,,,,,,,,,,,,,,,,,,,,,4.11334,,35.8619,,,,,,,,0,1712155202,2,9,9,2,9,9,9
2024-04-03 15:00:02+00:00,,,,,,,12.2156,,,,,,,,,,,,,,,,,,,,,4.10815,,35.8523,,,,,,,,0,1712156402,2,9,9,2,9,9,9
2024-04-03 15:20:02+00:00,,,,,,,12.163,,,,,,,,,,,,,,,,,,,,,4.10376,,35.8599,,,,,,,,0,1712157602,2,9,9,2,9,9,9
2024-04-03 15:40:01+00:00,,,,,,,12.1102,,,,,,,,,,,,,,,,,,,,,4.09878,,35.8621,,,,,,,,0,1712158801,2,9,9,2,9,9,9
2024-04-03 16:00:02+00:00,,,,,,,12.0681,,,,,,,,,,,,,,,,,,,,,4.09426,,35.8583,,,,,,,,0,1712160002,2,9,9,2,9,9,9
2024-04-03 16:20:02+00:00,,,,,,,12.0532,,,,,,,,,,,,,,,,,,,,,4.09189,,35.8495,,,,,,,,0,1712161202,2,9,9,2,9,9,9
2024-04-03 16:40:02+00:00,,,,,,,12.0472,,,,,,,,,,,,,,,,,,,,,4.09135,,35.8499,,,,,,,,0,1712162402,2,9,9,2,9,9,9
2024-04-03 17:00:02+00:00,,,,,,,12.0494,,,,,,,,,,,,,,,,,,,,,4.09123,,35.8467,,,,,,,,0,1712163602,2,9,9,2,9,9,9
2024-04-03 17:20:02+00:00,,,,,,,12.0508,,,,,,,,,,,,,,,,,,,,,4.09231,,35.8558,,,,,,,,0,1712164802,2,9,9,2,9,9,9
2024-04-03 17:40:02+00:00,,,,,,,12.0641,,,,,,,,,,,,,,,,,,,,,4.09308,,35.8506,,,,,,,,0,1712166002,2,9,9,2,9,9,9
2024-04-03 18:00:02+00:00,,,,,,,12.0695,,,,,,,,,,,,,,,,,,,,,4.09473,,35.8616,,,,,,,,0,1712167202,2,9,9,2,9,9,9
2024-04-03 18:20:02+00:00,,,,,,,12.0881,,,,,,,,,,,,,,,,,,,,,4.09744,,35.8701,,,,,,,,0,1712168402,2,9,9,2,9,9,9
2024-04-03 18:40:01+00:00,,,,,,,12.105,,,,,,,,,,,,,,,,,,,,,4.09909,,35.8701,,,,,,,,0,1712169601,2,9,9,2,9,9,9
2024-04-03 19:00:02+00:00,,,,,,,12.1298,,,,,,,,,,,,,,,,,,,,,4.09976,,35.8528,,,,,,,,0,1712170802,2,9,9,2,9,9,9
2024-04-03 19:20:02+00:00,,,,,,,12.1313,,,,,,,,,,,,,,,,,,,,,4.09994,,35.853,,,,,,,,0,1712172002,2,9,9,2,9,9,9
2024-04-03 19:40:02+00:00,,,,,,,12.1258,,,,,,,,,,,,,,,,,,,,,4.1,,35.8589,,,,,,,,0,1712173202,2,9,9,2,9,9,9
2024-04-03 20:00:02+00:00,,,,,,,12.1268,,,,,,,,,,,,,,,,,,,,,4.09973,,35.8554,,,,,,,,0,1712174402,2,9,9,2,9,9,9
2024-04-03 20:20:02+00:00,,,,,,,12.124,,,,,,,,,,,,,,,,,,,,,4.09956,,35.8564,,,,,,,,0,1712175602,2,9,9,2,9,9,9
2024-04-03 20:40:02+00:00,,,,,,,12.1149,,,,,,,,,,,,,,,,,,,,,4.09838,,35.8536,,,,,,,,0,1712176802,2,9,9,2,9,9,9
2024-04-03 21:00:02+00:00,,,,,,,12.0938,,,,,,,,,,,,,,,,,,,,,4.09708,,35.8612,,,,,,,,0,1712178002,2,9,9,2,9,9,9
2024-04-03 21:20:02+00:00,,,,,,,12.0851,,,,,,,,,,,,,,,,,,,,,4.09588,,35.8578,,,,,,,,0,1712179202,2,9,9,2,9,9,9
2024-04-03 21:40:02+00:00,,,,,,,12.0672,,,,,,,,,,,,,,,,,,,,,4.09454,,35.8619,,,,,,,,0,1712180402,2,9,9,2,9,9,9
2024-04-03 22:00:02+00:00,,,,,,,12.0475,,,,,,,,,,,,,,,,,,,,,4.0925,,35.8608,,,,,,,,0,1712181602,2,9,9,2,9,9,9